Regional Weather Roundup
Issued by NWS

Home | Current Version | Previous Version | Graphics & Text | Print | Product List | Glossary On
Versions: 1 2 3 4 5 6 7 8 9 10 11 12 13 14 15 16 17 18 19 20 21 22 23 24 25 26 27 28 29 30 31 32 33 34 35 36 37 38 39 40 41 42 43 44 45 46 47 48 49 50
000
ASUS45 KCYS 152210
RWRWY

WYOMING REGIONAL WEATHER ROUNDUP
NATIONAL WEATHER SERVICE CHEYENNE WY
400 PM MDT WED AUG 15 2018

NOTE:  "FAIR" INDICATES FEW OR NO CLOUDS BELOW 12,000 FEET
WITH NO SIGNIFICANT WEATHER AND/OR OBSTRUCTIONS TO VISIBILITY.

WYZ001-152300-
YELLOWSTONE NATIONAL PARK

CITY           SKY/WX    TMP DP  RH WIND       PRES   REMARKS
LK YELLOWSTONE   N/A     77  19  11 VRB7      30.27F
W YELLOWSTONE  NOT AVBL

$$
WYZ002>013-054>058-071-098>099-152300-
NORTHERN WYOMING

CITY           SKY/WX    TMP DP  RH WIND       PRES   REMARKS
JACKSON        FAIR      83  18   9 NW8       30.16F
CODY           FAIR      82  37  20 VRB5      30.06S
GREYBULL       FAIR      90  36  14 N10G16    29.96F
WORLAND        FAIR      87  33  14 VRB3      29.98F
SHERIDAN       FAIR      85  44  23 E6        29.99F
BUFFALO        FAIR      82  39  21 N9        30.07F
GILLETTE       FAIR      80  47  31 N8        30.02F
HULETT         MOCLDY    77  50  38 CALM      30.04S HAZE
NEWCASTLE      FAIR      77  46  33 W6        30.04F

$$
WYZ014>020-022>026-101>103-152300-
CENTRAL WYOMING

CITY           SKY/WX    TMP DP  RH WIND       PRES   REMARKS
BIG PINEY      FAIR      86  16   7 N15G25    30.19F
PINEDALE       FAIR      82  18   9 NW21G26   30.20F
DUBOIS         FAIR      81  14   8 N16G23    30.18S
LANDER         FAIR      86  39  19 N10       30.06F
RIVERTON       FAIR      83  35  18 E8        30.07F
CASPER         FAIR      87  34  15 NW7G18    30.05F
DOUGLAS        FAIR      85  36  17 VRB5      30.05F

$$
WYZ021-027>030-104>119-152300-
SOUTHERN WYOMING

CITY           SKY/WX    TMP DP  RH WIND       PRES   REMARKS
EVANSTON       FAIR      80  31  16 W6G18     30.22F
KEMMERER       FAIR      82  18   9 W18G28    30.23S
ROCK SPRINGS   FAIR      86   7   5 W20G28    30.16S
DIXON          FAIR      89  20   8 W23G29    30.16F
RAWLINS        FAIR      85  21   9 NW12G21   30.15F
SARATOGA       FAIR      86  18   8 W15G21    30.18F
LARAMIE        FAIR      83  25  12 NW20G31   30.18S
CHEYENNE       FAIR      81  45  28 N14G22    30.10F
TORRINGTON     FAIR      83  51  33 W6        29.99F
PINE BLUFFS    FAIR      81  43  26 N13G20    30.05F

$$



USA.gov is the U.S. government's official web portal to all federal, state and local government web resources and services.